Gallup, NM

10:53 PM MDT on June 26, 2017 (GMT -0600)
Gallup Municipal

Weather History for KGUP - January, 2014

Change the Weather History Date:

Thursday, January 30, 2014

  Actual Average Record
Temperature  
Mean Temperature 44 °F -  
Max Temperature 57 °F 44 °F 65 °F (1986)
Min Temperature 32 °F 13 °F -20 °F (1979)
Degree Days  
Heating Degree Days 20    
Moisture  
Dew Point 21 °F    
Average Humidity 37    
Maximum Humidity 54    
Minimum Humidity 25    
Precipitation  
Precipitation 0.00 in - - ()
Sea Level Pressure  
Sea Level Pressure 29.73 in    
Wind  
Wind Speed 12 mph (SW)    
Max Wind Speed 31 mph    
Max Gust Speed 40 mph    
Visibility 10 miles    
Events      
Averages and records for this station are not official NWS values.
T = Trace of Precipitation, MM = Missing Value Source: NWS Daily Summary

Daily Weather History Graph

Daily Weather History Graph

Search for Another Location

Airport or City:

Trip Planner

Search our weather history database for the weather conditions in past years. The results will help you decide how hot, cold, wet, or windy it might be!

Date:

Astronomy

Jan. 30, 2014 Rise Set
Actual Time 7:16 AM MST 5:41 PM MST
Civil Twilight 6:49 AM MST 6:07 PM MST
Nautical Twilight 6:18 AM MST 6:38 PM MST
Astronomical Twilight 5:48 AM MST 7:08 PM MST
Moon 6:46 AM MST (1/30) 5:54 PM MST (1/30)
Length of Visible Light 11h 18m
Length of Day
10h 24m
Waning Crescent, 0% of the Moon is Illuminated
Jan 30
Waning Crescent
Jan 30
New
Feb 6
First Quarter
Feb 14
Full
Feb 22
Last Quarter

Hourly Weather History & Observations

Time (MST) Temp. Windchill Dew Point Humidity Pressure Visibility Wind Dir Wind Speed Gust Speed Precip Events Conditions
12:53 AM 32.0 °F - 10.9 °F 42% 29.87 in 10.0 mi Calm Calm - N/A   Clear
1:53 AM 37.9 °F 33.5 °F 16.0 °F 41% 29.81 in 10.0 mi SSW 5.8 mph - N/A   Clear
2:53 AM 41.0 °F 35.2 °F 16.0 °F 36% 29.78 in 10.0 mi SW 9.2 mph - N/A   Clear
3:53 AM 39.9 °F 32.5 °F 16.0 °F 38% 29.76 in 10.0 mi SSW 12.7 mph - N/A   Clear
4:53 AM 39.9 °F 31.4 °F 14.0 °F 35% 29.76 in 10.0 mi SW 16.1 mph 21.9 mph N/A   Clear
5:53 AM 37.9 °F 34.4 °F 15.1 °F 39% 29.82 in 10.0 mi Variable 4.6 mph - N/A   Clear
6:53 AM 37.9 °F 32.7 °F 15.1 °F 39% 29.86 in 10.0 mi SSW 6.9 mph - N/A   Clear
7:53 AM 36.0 °F - 15.1 °F 43% 29.89 in 10.0 mi Calm Calm - N/A   Clear
8:53 AM 42.1 °F 39.2 °F 19.0 °F 40% 29.89 in 10.0 mi South 4.6 mph - N/A   Clear
9:53 AM 50.0 °F - 21.0 °F 32% 29.86 in 10.0 mi SW 25.3 mph 38.0 mph N/A   Clear
10:53 AM 52.0 °F - 21.0 °F 30% 29.85 in 10.0 mi WSW 24.2 mph 33.4 mph N/A   Clear
11:53 AM 55.0 °F - 21.0 °F 27% 29.79 in 10.0 mi SW 24.2 mph 35.7 mph N/A   Clear
12:53 PM 55.0 °F - 21.0 °F 27% 29.73 in 10.0 mi SW 24.2 mph 36.8 mph N/A   Clear
1:53 PM 55.9 °F - 19.9 °F 25% 29.66 in 10.0 mi SW 31.1 mph 40.3 mph N/A   Partly Cloudy
2:53 PM 57.0 °F - 21.0 °F 25% 29.62 in 10.0 mi SW 23.0 mph 34.5 mph N/A   Mostly Cloudy
3:53 PM 57.0 °F - 23.0 °F 27% 29.61 in 10.0 mi WSW 24.2 mph 36.8 mph N/A   Mostly Cloudy
4:53 PM 55.9 °F - 28.0 °F 34% 29.62 in 10.0 mi West 16.1 mph 29.9 mph N/A   Mostly Cloudy
5:53 PM 55.0 °F - 28.0 °F 35% 29.64 in 10.0 mi SW 28.8 mph 36.8 mph N/A   Overcast
6:53 PM 48.9 °F - 33.1 °F 54% 29.71 in 10.0 mi WSW 19.6 mph 26.5 mph 0.00 in   Overcast
7:53 PM 51.1 °F - 28.9 °F 43% 29.69 in 10.0 mi WSW 21.9 mph 39.1 mph 0.00 in   Scattered Clouds
8:53 PM 48.9 °F - 28.0 °F 44% 29.65 in 10.0 mi SW 21.9 mph 31.1 mph N/A   Mostly Cloudy
9:53 PM 48.9 °F - 26.1 °F 41% 29.60 in 10.0 mi SW 18.4 mph 31.1 mph N/A   Overcast
10:53 PM 46.9 °F - 25.0 °F 42% 29.58 in 10.0 mi SW 23.0 mph 33.4 mph N/A   Mostly Cloudy
11:53 PM 46.0 °F 39.9 °F 25.0 °F 44% 29.57 in 10.0 mi SW 13.8 mph 23.0 mph N/A   Overcast